Weather History for KAPF - August, 2014

Change the Weather History Date:

Thursday, August 28, 2014

  Actual Average Record
Temperature  
Mean Temperature 85 °F 83 °F  
Max Temperature 92 °F 91 °F 97 °F (1987)
Min Temperature 78 °F 76 °F 63 °F (1973)
Degree Days  
Heating Degree Days 0 0  
Month to date heating degree days 0 0  
Since 1 June heating degree days 0 0  
Since 1 July heating degree days 0 0  
Cooling Degree Days 20 18  
Month to date cooling degree days 543 504  
Year to date cooling degree days 2808 2598  
Since 1 June cooling degree days 1619 1570  
Growing Degree Days 34 (Base 50)    
Moisture  
Dew Point 76 °F    
Average Humidity 79    
Maximum Humidity 94    
Minimum Humidity 64    
Precipitation  
Precipitation 0.02 in 0.29 in 2.50 in (1988)
Month to date precipitation 12.49 7.72  
Year to date precipitation 36.45 35.66  
Snow  
Snow 0.00 in - - ()
Month to date snowfall 0.0  
Since 1 June snowfall 0.0  
Since 1 July snowfall 0.0  
Snow Depth 0.00 in    
Sea Level Pressure  
Sea Level Pressure 29.96 in    
Wind  
Wind Speed 7 mph (East)    
Max Wind Speed 17 mph    
Max Gust Speed 20 mph    
Visibility 10 miles    
Events Thunderstorm    
T = Trace of Precipitation, MM = Missing Value Source: NWS Daily Summary

Daily Weather History Graph

Daily Weather History Graph

Search for Another Location

Airport or City:

Trip Planner

Search our weather history database for the weather conditions in past years. The results will help you decide how hot, cold, wet, or windy it might be!

Date:

Astronomy

Aug. 28, 2014 Rise Set
Actual Time 7:05 AM EDT 7:50 PM EDT
Civil Twilight 6:41 AM EDT 8:14 PM EDT
Nautical Twilight 6:14 AM EDT 8:42 PM EDT
Astronomical Twilight 5:45 AM EDT 9:10 PM EDT
Moon 9:36 AM EDT (8/28) 9:36 PM EDT (8/28)
Length of Visible Light 13h 32m
Length of Day
12h 45m
Waxing Crescent, 8% of the Moon is Illuminated
Aug 28
Waxing Crescent
Sep 2
First Quarter
Sep 8
Full
Sep 15
Last Quarter
Sep 24
New

Hourly Weather History & Observations

Time (EDT) Temp. Heat Index Dew Point Humidity Pressure Visibility Wind Dir Wind Speed Gust Speed Precip Events Conditions
12:53 AM 82.0 °F 85.9 °F 70.0 °F 67% 29.98 in 10.0 mi SE 4.6 mph - N/A   Overcast
1:53 AM 82.0 °F 86.7 °F 72.0 °F 71% 29.96 in 10.0 mi East 8.1 mph - N/A   Overcast
2:53 AM 79.0 °F - 73.9 °F 84% 29.94 in 10.0 mi ENE 6.9 mph - N/A   Clear
3:53 AM 78.1 °F - 73.9 °F 87% 29.93 in 10.0 mi ENE 6.9 mph - N/A   Clear
4:53 AM 79.0 °F - 73.9 °F 84% 29.93 in 10.0 mi ENE 6.9 mph - N/A   Scattered Clouds
5:53 AM 79.0 °F - 73.9 °F 84% 29.95 in 10.0 mi ENE 8.1 mph - N/A   Overcast
6:53 AM 80.1 °F 85.1 °F 75.0 °F 85% 29.95 in 10.0 mi ENE 9.2 mph - N/A   Overcast
7:53 AM 80.1 °F 85.1 °F 75.0 °F 85% 29.96 in 10.0 mi East 9.2 mph - N/A   Scattered Clouds
8:53 AM 82.0 °F 88.6 °F 75.0 °F 79% 29.97 in 10.0 mi East 9.2 mph - N/A   Mostly Cloudy
9:53 AM 82.0 °F 90.2 °F 77.0 °F 85% 29.98 in 10.0 mi SSE 8.1 mph - 0.00 in   Overcast
11:53 AM 84.9 °F 95.3 °F 77.0 °F 77% 29.99 in 10.0 mi SSE 8.1 mph - N/A   Overcast
12:53 PM 87.1 °F 97.3 °F 75.9 °F 69% 29.98 in 10.0 mi Variable 3.5 mph - 0.00 in   Partly Cloudy
1:53 PM 90.0 °F 100.2 °F 75.0 °F 61% 29.96 in 10.0 mi Variable 4.6 mph - N/A   Clear
2:53 PM 91.9 °F 105.9 °F 77.0 °F 62% 29.94 in 10.0 mi SW 10.4 mph - N/A   Partly Cloudy
3:53 PM 91.9 °F 105.9 °F 77.0 °F 62% 29.93 in 10.0 mi SSW 12.7 mph - N/A   Clear
4:29 PM 90.0 °F 102.5 °F 77.0 °F 65% 29.92 in 10.0 mi SSW 13.8 mph - N/A Thunderstorm Thunderstorm
4:44 PM 91.0 °F 102.9 °F 75.9 °F 61% 29.92 in 10.0 mi South 13.8 mph - N/A Thunderstorm Clear
4:53 PM 90.0 °F 101.3 °F 75.9 °F 63% 29.92 in 10.0 mi SSW 13.8 mph - N/A Thunderstorm Clear
5:08 PM 89.1 °F 99.1 °F 75.0 °F 63% 29.92 in 10.0 mi SSW 15.0 mph - N/A   Partly Cloudy
5:53 PM 86.0 °F 98.3 °F 78.1 °F 77% 29.94 in 10.0 mi South 10.4 mph - N/A   Scattered Clouds
6:53 PM 82.9 °F 90.8 °F 75.9 °F 79% 29.95 in 10.0 mi NE 5.8 mph - N/A   Scattered Clouds
7:09 PM 82.0 °F 89.4 °F 75.9 °F 82% 29.94 in 10.0 mi ENE 4.6 mph - N/A   Mostly Cloudy
7:17 PM 82.0 °F 89.4 °F 75.9 °F 82% 29.95 in 10.0 mi East 3.5 mph - N/A   Overcast
7:25 PM 82.9 °F 90.8 °F 75.9 °F 79% 29.95 in 10.0 mi Calm Calm - N/A   Overcast
7:42 PM 84.0 °F 92.6 °F 75.9 °F 76% 29.95 in 10.0 mi NE 3.5 mph - N/A Thunderstorm Overcast
7:53 PM 82.9 °F 90.8 °F 75.9 °F 79% 29.95 in 10.0 mi NNE 3.5 mph - N/A   Mostly Cloudy
8:38 PM 81.0 °F 87.3 °F 75.9 °F 85% 29.97 in 10.0 mi NNE 5.8 mph - N/A   Scattered Clouds
8:53 PM 81.0 °F 87.9 °F 77.0 °F 88% 29.98 in 10.0 mi East 6.9 mph - N/A   Partly Cloudy
9:53 PM 81.0 °F 87.9 °F 77.0 °F 88% 30.01 in 10.0 mi NE 4.6 mph - N/A   Partly Cloudy
10:53 PM 81.0 °F 87.9 °F 77.0 °F 88% 30.00 in 10.0 mi Calm Calm - N/A   Clear
11:53 PM 81.0 °F 88.6 °F 78.1 °F 91% 30.00 in 10.0 mi ENE 5.8 mph - N/A   Partly Cloudy